This is the latest recevied weather packets stored in our database for station/object IW7DVM-13. If no packets are shown the sender has not sent any weather packets the latest 10 day(s).
| Time | Temp. | Humidity | Pressure | Rain* | Wind** | Luminosity | Snow |
|---|---|---|---|---|---|---|---|
| 1777879203 | 17.78° C | 65% | 1014.1 hPa | 0 mm | - | - | - |
| 1777878903 | 17.78° C | 64% | 1014 hPa | 0 mm | - | - | - |
| 1777878603 | 17.78° C | 64% | 1013.9 hPa | 0 mm | - | - | - |
| 1777878303 | 17.78° C | 63% | 1014 hPa | 0 mm | - | - | - |
| 1777878003 | 17.78° C | 63% | 1014 hPa | 0 mm | - | - | - |
| 1777877703 | 17.78° C | 63% | 1014 hPa | 0 mm | - | - | - |
| 1777877403 | 17.78° C | 66% | 1014 hPa | 0 mm | - | - | - |
| 1777877103 | 17.78° C | 66% | 1014 hPa | 0 mm | - | - | - |
| 1777876803 | 17.78° C | 66% | 1013.9 hPa | 0 mm | - | - | - |
| 1777876503 | 17.22° C | 66% | 1013.9 hPa | 0 mm | - | - | - |
| 1777876203 | 17.22° C | 66% | 1013.9 hPa | 0 mm | - | - | - |
| 1777875903 | 17.78° C | 65% | 1013.8 hPa | 0 mm | - | - | - |
| 1777875603 | 17.78° C | 65% | 1013.7 hPa | 0 mm | - | - | - |
| 1777875303 | 17.22° C | 66% | 1013.8 hPa | 0 mm | - | - | - |
| 1777875003 | 17.22° C | 66% | 1013.8 hPa | 0 mm | - | - | - |
| 1777874703 | 16.67° C | 67% | 1013.8 hPa | 0 mm | - | - | - |
| 1777874403 | 16.67° C | 68% | 1013.9 hPa | 0 mm | - | - | - |
| 1777874103 | 16.67° C | 68% | 1013.9 hPa | 0 mm | - | - | - |
| 1777873803 | 16.11° C | 68% | 1014 hPa | 0 mm | - | - | - |
| 1777873503 | 16.11° C | 69% | 1014 hPa | 0 mm | - | - | - |
| 1777873203 | 16.11° C | 69% | 1014 hPa | 0 mm | - | - | - |
| 1777872903 | 15.56° C | 70% | 1014 hPa | 0 mm | - | - | - |
| 1777872603 | 15.56° C | 69% | 1013.8 hPa | 0 mm | - | - | - |
| 1777872303 | 15° C | 70% | 1013.8 hPa | 0 mm | - | - | - |
| 1777872003 | 14.44° C | 70% | 1013.7 hPa | 0 mm | - | - | - |
* Rain latest hour (hover to see other rain measurements)
** Current wind speed in m/s (hover to see current wind gust speed)